This demonstration page uses our WeatherBlox Daily Observations layout. Learn more.

Left ArrowRight Arrow

34.16533, -84.80231

Hourly Observations for October 12, 2020

Temp ( °F °C ) Dew Point ( °F °C ) Humidity (%) Winds ( mph kmh ) Pressure ( in mb ) Visibility ( mi km ) Precip ( " mm )
12:53 am 00:53 Cloudy 71 21.7 68 20 90 90 Calm 29.82 1010 10 16 0.00 0.00
1:53 am 01:53 Cloudy 71 21.7 68 20 90 90 Calm 29.83 1010 10 16 0.00 0.00
2:05 am 02:05 Cloudy 71 21.7 68 20 90 90 Calm 29.84 1010 10 16 0.00 0.00
2:34 am 02:34 Cloudy 71 21.7 68 20 90 90 Calm 29.84 1010 10 16 0.00 0.00
2:53 am 02:53 Cloudy 71 21.7 68 20 90 90 Calm 29.83 1010 10 16 0.00 0.00
3:16 am 03:16 Cloudy 71 21.7 68 20 90 90 Calm 29.84 1010 10 16 0.00 0.00
3:33 am 03:33 Cloudy 71 21.7 68 20 90 90 Calm 29.84 1010 10 16 0.00 0.00
3:53 am 03:53 Cloudy 71 21.7 68 20 90 90 Calm 29.82 1010 10 16 0.00 0.00
4:53 am 04:53 Cloudy 71 21.7 68 20 90 90 Calm 29.83 1010 10 16 0.00 0.00
5:09 am 05:09 Cloudy 71 21.7 68 20 90 90 Calm 29.84 1010 10 16 0.00 0.00
5:27 am 05:27 Cloudy 71 21.7 68 20 90 90 Calm 29.85 1011 10 16 0.00 0.00
5:53 am 05:53 Cloudy 71 21.7 68 20 90 90 Calm 29.84 1011 10 16 0.00 0.00
6:04 am 06:04 Cloudy 71 21.7 68 20 90 90 Calm 29.86 1011 10 16 0.00 0.00
6:34 am 06:34 Cloudy 71 21.7 68 20 90 90 Calm 29.86 1011 10 16 0.00 0.00
6:42 am 06:42 Cloudy 71 21.7 68 20 90 90 Calm 29.86 1011 10 16 0.00 0.00
6:53 am 06:53 Cloudy 71 21.7 68 20 90 90 Calm 29.85 1011 10 16 0.00 0.00
7:41 am 07:41 Cloudy 71 21.7 68 20 90 90 Calm 29.88 1012 10 16 0.00 0.00
7:53 am 07:53 Cloudy 71 21.7 68 20 90 90 Calm 29.87 1012 10 16 0.00 0.00
8:02 am 08:02 Cloudy 71 21.7 68 20 90 90 Calm 29.89 1012 10 16 0.00 0.00
8:14 am 08:14 Cloudy 71 21.7 68 20 90 90 Calm 29.89 1012 10 16 0.00 0.00
8:53 am 08:53 Cloudy 72 22.2 68 20 87 87 Calm 29.89 1012 10 16 0.00 0.00
9:44 am 09:44 Cloudy 72 22.2 68 20 87 87 Calm 29.92 1013 10 16 0.00 0.00
9:53 am 09:53 Cloudy 72 22.2 68 20 87 87 Calm 29.91 1013 10 16 0.00 0.00
10:30 am 10:30 Cloudy 73 22.8 68 20 84 84 Calm 29.93 1013 10 16 0.00 0.00
10:53 am 10:53 Cloudy 74 23.3 68 20 82 82 Calm 29.92 1013 10 16 0.00 0.00
11:00 am 11:00 Cloudy 74 23.3 67 19.4 79 79 Calm 29.93 1014 10 16 0.00 0.00
11:32 am 11:32 Cloudy 75 23.9 66 18.9 74 74 Calm 29.93 1014 10 16 0.00 0.00
11:53 am 11:53 Cloudy 75 23.9 66 18.9 74 74 Calm 29.93 1013 10 16 0.00 0.00
12:53 pm 12:53 Cloudy 76 24.4 64 17.8 67 67 Calm 29.92 1013 10 16 0.00 0.00
1:53 pm 13:53 Partly Cloudy 78 25.6 64 17.8 62 62 VRB 3 6 29.89 1012 10 16 0.00 0.00
2:53 pm 14:53 Mostly Cloudy 79 26.1 64 17.8 60 60 VRB 3 6 29.88 1012 10 16 0.00 0.00
3:53 pm 15:53 Mostly Cloudy 80 26.7 65 18.3 60 60 Calm 29.87 1012 10 16 0.00 0.00
4:53 pm 16:53 Mostly Sunny 81 27.2 64 17.8 57 57 N 5 7 29.86 1011 10 16 0.00 0.00
5:53 pm 17:53 Sunny 79 26.1 65 18.3 62 62 Calm 29.85 1011 10 16 0.00 0.00
6:53 pm 18:53 Sunny 72 22.2 68 20 87 87 Calm 29.85 1011 10 16 0.00 0.00
7:53 pm 19:53 Clear 69 20.6 67 19.4 93 93 Calm 29.88 1012 10 16 0.00 0.00
8:53 pm 20:53 Clear 68 20 66 18.9 93 93 Calm 29.91 1013 10 16 0.00 0.00
9:53 pm 21:53 Cloudy 70 21.1 67 19.4 90 90 Calm 29.91 1013 10 16 0.00 0.00
10:53 pm 22:53 Cloudy 71 21.7 67 19.4 87 87 Calm 29.93 1013 10 16 0.00 0.00
11:53 pm 23:53 Mostly Cloudy 70 21.1 67 19.4 90 90 Calm 29.93 1013 10 16 0.00 0.00

Powered by AerisWeather